SES-17

Last updated on Thu Nov 21 2024 00:02:44 GMT+0000 (Coordinated Universal Time)

1 49332U 21095A 24324.99607530 -.00000270 00000+0 00000+0 0 9990 2 49332 0.0116 354.1893 0001357 244.2094 112.6063 1.00269091 12094
UTC large
Height (km)
Speed (km/s)
/
Latitude / Longitude
Inclination (degrees)
Orbital Period (minutes)
Azimuth
Elevation
Range (km)
Doppler Factor

Next 0 passes for location: London (51.5072 / 0.1276)

Sorry there are no passes over London.